Flag for U.S.A. Weather past 2 weeks in Aliso Viejo, California, U.S.A.

Now
72 °F

Partly sunny.


Feels Like: 77 °F
Forecast: 57 / 71 °F
Wind: 7 mph from Southwest

Location: John Wayne Airport-Orange County Airport


UV Index: 5 (Moderate)

Visibility: 10 mi


Pressure: 29.96 "Hg

Humidity: 49%

Dew point: 52 °F

Location of Aliso ViejoLocation

Historic Weather in Aliso Viejo

°F

Aliso Viejo temperature yesterday

Maximum temperature yesterday: 70 °F (at 1:53 PM)
Minimum temperature yesterday: 62 °F (at 12:53 AM)
Average temperature yesterday: 65 °F

Past Weeks' High & Low Weather Summary

 TemperatureHumidityPressure
High88 °F (Apr 8, 1:53 PM)94% (Apr 10, 3:03 AM)30.10 "Hg (Apr 10, 3:03 AM)
Low53 °F (Apr 6, 6:53 AM)16% (Apr 8, 3:53 PM)29.79 "Hg (Apr 16, 5:53 PM)
Average65 °F61%29.96 "Hg
* Reported Apr 4 3:53 PM — Apr 19 3:53 PM, Aliso Viejo, Weather by CustomWeather, © 2014

Note: Actual official high and low records may vary slightly from our data, if they occured in-between our weather recording intervals... More about our weather records

Advertising

Historic Weather Conditions — Data for Previous 24 hours

 ConditionsComfort  
Time TempWeatherWind HumidityBarometerVisibility
3:53 PM
Apr 19
72 °FPartly sunny.7 mph49%29.96 "Hg10 mi
2:53 PM70 °FPartly sunny.7 mph53%29.98 "Hg10 mi
1:53 PM69 °FPartly sunny.8 mph57%30.00 "Hg10 mi
12:53 PM70 °FPartly sunny.7 mph55%30.00 "Hg10 mi
11:53 AM69 °FPartly sunny.6 mph57%30.01 "Hg10 mi
10:53 AM68 °FBroken clouds.6 mph59%30.01 "Hg10 mi
10:03 AM66 °FPartly sunny.5 mph64%30.00 "Hg10 mi
9:53 AM67 °FScattered clouds.5 mph63%29.99 "Hg10 mi
8:53 AM65 °FSunny.3 mph68%29.98 "Hg10 mi
7:53 AM62 °FSunny.3 mph73%29.97 "Hg9 mi
6:53 AM59 °FClear.No wind81%29.96 "Hg10 mi
5:53 AM59 °FPassing clouds.No wind81%29.95 "Hg10 mi
4:53 AM60 °FClear.No wind78%29.93 "Hg10 mi
3:53 AM60 °FClear.No wind80%29.93 "Hg10 mi
2:53 AM61 °FClear.No wind81%29.94 "Hg9 mi
1:53 AM61 °FClear.3 mph81%29.94 "Hg9 mi
12:53 AM61 °FClear.6 mph81%29.95 "Hg10 mi
11:53 PM
Apr 18
62 °FClear.5 mph73%29.94 "Hg10 mi
10:53 PM63 °FPassing clouds.5 mph73%29.94 "Hg10 mi
9:53 PM63 °FPassing clouds.3 mph73%29.93 "Hg10 mi
8:53 PM64 °FPartly cloudy.No wind68%29.92 "Hg10 mi
7:53 PM64 °FScattered clouds.5 mph70%29.90 "Hg10 mi
6:53 PM66 °FBroken clouds.6 mph59%29.89 "Hg10 mi
5:53 PM68 °FBroken clouds.7 mph51%29.88 "Hg10 mi
4:53 PM69 °FBroken clouds.7 mph55%29.87 "Hg10 mi
Weather by CustomWeather, © 2014

See weather overview